User: anonymous   Login
Location: Kuffner-Sternwarte
(48.2130°N, 16.2960°E)
Time: 11:49:37
(UTC+02:00)
Language:

COROT - Orbit

View from above orbital plane
View from above orbital plane
View from above satellite
View from above satellite

Ground track
Ground track

The orbit data is extracted from the following two-line orbital elements,

1 29678U 06063A   17146.62434837 +.00000148 +00000-0 +30210-4 0  9996
2 29678 090.0320 015.1340 0201660 186.3173 173.5486 14.44058965536954
Epoch (UTC): 26 May 2017 14:59:03
Eccentricity: 0.0201660
inclination: 90.0320°
perigee height: 601 km
apogee height: 889 km
right ascension of ascending node: 15.1340°
argument of perigee: 186.3173°
revolutions per day: 14.44058965
mean anomaly at epoch: 173.5486°
orbit number at epoch: 53695

The dashed part of the orbit path shows where the satellite is in the earth's shadow,  

DLR